Flag for Norway Weather past 2 weeks in Rygge, Norway

Now
61 °F

Passing clouds.


Feels Like: 61 °F
Forecast: 55 / 66 °F
Wind: 5 mph from Southwest

Location: Rygge

Current Time: Aug 27, 2015 at 9:34:52 PM

Latest Report: Aug 27, 2015 at 8:00 PM


Visibility: 28 mi

Pressure: 29.54 "Hg

Humidity: 68%

Dew point: 51 °F

Location of RyggeLocation

Historic Weather in Rygge — Graph

°F

Rygge temperature yesterday

Maximum temperature yesterday: 65 °F (at 2:00 PM)
Minimum temperature yesterday: 57 °F (at 6:00 AM)
Average temperature yesterday: 61 °F

Past Weeks' High & Low Weather Summary

 TemperatureHumidityPressure
High76 °F (Aug 23, 3:00 PM)100% (Aug 13, 5:00 AM)30.38 "Hg (Aug 13, 5:00 AM)
Low45 °F (Aug 22, 5:00 AM)26% (Aug 14, 5:00 PM)29.50 "Hg (Aug 27, 5:00 PM)
Average63 °F71%30.11 "Hg
* Reported Aug 12 8:00 PM — Aug 27 8:00 PM, Rygge, Weather by CustomWeather, © 2015

Note: Actual official high and low records may vary slightly from our data, if they occured in-between our weather recording intervals... More about our weather records

Advertising

Rygge weather history for previous 24 hours

 ConditionsComfort  
Time TempWeatherWind HumidityBarometerVisibility
8:00 PM
Thu, Aug 27
61 °FPassing clouds.5 mph68%29.54 "Hg28 mi
7:00 PM64 °FPartly sunny.7 mph81%29.54 "Hg13 mi
6:00 PM64 °FPassing clouds.8 mph80%29.54 "Hg16 mi
5:00 PM65 °FPartly sunny.9 mph82%29.50 "Hg14 mi
4:00 PM65 °FOvercast.8 mph79%29.54 "Hg14 mi
3:00 PM65 °FPartly sunny.7 mph84%29.54 "Hg11 mi
2:00 PM63 °FRain showers. Overcast.6 mph92%29.55 "Hg9 mi
1:00 PM60 °FRain. Overcast.3 mph96%29.56 "Hg6 mi
12:00 PM62 °FRain showers. Overcast.5 mph94%29.57 "Hg13 mi
11:00 AM61 °FRain showers. Overcast.5 mph95%29.59 "Hg12 mi
10:00 AM61 °FPartly sunny.3 mph95%29.60 "Hg22 mi
9:00 AM60 °FLots of rain. Fog.5 mph97%29.61 "Hg4 mi
8:00 AM59 °FOvercast.5 mph96%29.61 "Hg16 mi
7:00 AM58 °FScattered clouds.3 mph97%29.61 "Hg15 mi
6:00 AM58 °FLight rain. Overcast.2 mph97%29.59 "Hg6 mi
3:00 AM63 °FLight mixture of precip. Low clouds.6 mph96%29.65 "Hg2 mi
2:00 AM63 °FLight rain. Overcast.8 mph95%29.66 "Hg4 mi
1:00 AM63 °FDrizzle. Low clouds.8 mph95%29.68 "Hg7 mi
12:00 AM62 °FLight rain. Fog.7 mph97%29.70 "Hg4 mi
10:00 PM
Wed, Aug 26
62 °FLow clouds.7 mph95%29.73 "Hg11 mi
9:00 PM61 °FLots of rain. Low clouds.6 mph96%29.74 "Hg3 mi
Weather by CustomWeather, © 2015

See weather overviewHow to use our weather pages